This demonstration page uses our WeatherBlox Daily Observations layout. Learn more.

Left ArrowRight Arrow

Hourly Observations for June 8, 2015

Temp ( °F °C ) Dew Point ( °F °C ) Humidity (%) Winds ( mph kmh ) Pressure ( in mb ) Visibility ( mi km ) Precip ( " mm )
12:51 am 00:51 undefined 80 26.7 38 3.3 22 22 WNW 10 17 29.76 1008 10 16 0.00 0.00
1:51 am 01:51 undefined 80 26.7 38 3.3 22 22 WNW 12 19 29.76 1008 10 16 0.00 0.00
2:51 am 02:51 undefined 79 26.1 37 2.8 22 22 NW 6 9 29.77 1008 10 16 0.00 0.00
3:51 am 03:51 undefined 77 25 37 2.8 24 24 WNW 9 15 29.77 1008 10 16 0.00 0.00
4:51 am 04:51 undefined 77 25 37 2.8 24 24 NW 5 7 29.79 1009 10 16 0.00 0.00
5:51 am 05:51 undefined 74 23.3 38 3.3 27 27 NNW 5 7 29.82 1010 10 16 0.00 0.00
6:51 am 06:51 undefined 78 25.6 38 3.3 24 24 Calm 29.82 1010 10 16 0.00 0.00
7:51 am 07:51 undefined 79 26.1 39 3.9 24 24 WSW 3 6 29.83 1010 10 16 0.00 0.00
8:51 am 08:51 undefined 83 28.3 40 4.4 22 22 W 6 9 29.84 1010 10 16 0.00 0.00
9:51 am 09:51 Sunny 89 31.7 39 3.9 17 17 VRB 6 9 29.82 1010 10 16 0.00 0.00
10:51 am 10:51 Sunny 93 33.9 38 3.3 14 14 NNW 5 7 29.80 1009 10 16 0.00 0.00
11:51 am 11:51 Sunny 95 35 37 2.8 13 13 SW 8 13 29.78 1008 10 16 0.00 0.00
12:51 pm 12:51 Sunny 98 36.7 39 3.9 13 13 VRB 3 6 29.75 1007 10 16 0.00 0.00
1:51 pm 13:51 Sunny 98 36.7 38 3.3 12 12 W 13 20 29.72 1007 10 16 0.00 0.00
2:51 pm 14:51 Sunny 100 37.8 39 3.9 12 12 W 8 13 29.70 1006 10 16 0.00 0.00
3:51 pm 15:51 Sunny 99 37.2 40 4.4 13 13 NW 8 13 29.68 1005 10 16 0.00 0.00
4:51 pm 16:51 Sunny 98 36.7 41 5 14 14 W 5 7 29.66 1005 10 16 0.00 0.00
5:51 pm 17:51 Mostly Cloudy 93 33.9 49 9.4 22 22 ESE 20 31 29.70 1006 10 16 0.00 0.00
6:01 pm 18:01 Mostly Cloudy 92 33.3 50 10 24 24 ESE 26 43 29.62 1003 10 16 0.00 0.00
6:51 pm 18:51 Partly Cloudy 90 32.2 48 8.9 24 24 ESE 24 39 29.73 1007 10 16 0.00 0.00
7:51 pm 19:51 Cloudy 89 31.7 48 8.9 24 24 NNE 7 11 29.72 1006 10 16 0.00 0.03
8:51 pm 20:51 Cloudy with Light Rain 80 26.7 61 16.1 52 52 NNW 10 17 29.78 1008 10 16 0.02 0.51
9:51 pm 21:51 Cloudy 80 26.7 61 16.1 52 52 NNE 9 15 29.81 1009 10 16 0.00 0.03
10:51 pm 22:51 Mostly Cloudy 79 26.1 63 17.2 58 58 ENE 5 7 29.82 1010 10 16 0.00 0.03

Powered by AerisWeather